Notices

What's New in latest Release from April 7th, 2021:

- Updated Glossary, including Speed of Maximum Gust, and Total Hourly Precipitation

- Updated national and regional climate services offices contacts and prices information

- Addition of station inventory lists for 1981-2010, 1971-2000, and 1961-1990 Normals.

If you haven't already, please take our survey and provide feedback about our website: https://eccc.sondage-survey.ca/f/LanguageSelection.aspx?s=442ca660-fcf1-47c0-95a9-59707d6fd709

Hourly Data Report for June 29, 2006

TORONTO CITY
ONTARIO

43°40'00.000" N
79°24'00.000" W
112.50 m
6158355
71508
XTO

Download Data

Hourly Data (June 2006)
Hourly Data Report for June 29, 2006
TIME
LST
Temp Definition
°C
Dew Point Definition
°C
Rel Hum Definition
%
Precip. Amount Definition
mm

Wind Dir Definition
10's deg

Wind Spd Definition
km/h
Visibility Definition
km
Stn Press Definition
kPa
Hmdx Definition


Wind Chill Definition


Weather Definition


00:00 18.7 18.4 98   LegendMM LegendMM   100.14     LegendNANA
01:00 19.3 18.7 96   LegendMM LegendMM   100.10     LegendNANA
02:00 18.8 18.3 97   LegendMM LegendMM   100.06     LegendNANA
03:00 18.5 17.8 96   LegendMM LegendMM   100.07     LegendNANA
04:00 17.5 17.0 97   LegendMM LegendMM   100.04     LegendNANA
05:00 17.7 17.4 98   LegendMM LegendMM   100.10     LegendNANA
06:00 18.0 16.9 93   LegendMM LegendMM   100.10     LegendNANA
07:00 18.6 16.5 88   LegendMM LegendMM   100.14     LegendNANA
08:00 19.3 16.3 83   LegendMM LegendMM   100.16     LegendNANA
09:00 20.4 17.2 82   LegendMM LegendMM   100.14 26   LegendNANA
10:00 21.5 18.1 81   LegendMM LegendMM   100.13 28   LegendNANA
11:00 23.0 17.8 73   LegendMM LegendMM   100.08 29   LegendNANA
12:00 23.5 17.7 70   LegendMM LegendMM   100.05 29   LegendNANA
13:00 18.1 16.7 92   LegendMM LegendMM   100.04     LegendNANA
14:00 16.7 14.6 87   LegendMM LegendMM   100.01     LegendNANA
15:00 18.5 16.2 86   LegendMM LegendMM   100.05     LegendNANA
16:00 18.7 17.0 90   LegendMM LegendMM   100.02     LegendNANA
17:00 20.1 16.0 77   LegendMM LegendMM   100.00 25   LegendNANA
18:00 20.2 14.8 71   LegendMM LegendMM   100.06     LegendNANA
19:00 18.8 15.8 83   LegendMM LegendMM   100.09     LegendNANA
20:00 18.2 15.4 84   LegendMM LegendMM   100.11     LegendNANA
21:00 17.4 15.2 87   LegendMM LegendMM   100.17     LegendNANA
22:00 17.1 15.3 89   LegendMM LegendMM   100.21     LegendNANA
23:00 16.8 15.2 90   LegendMM LegendMM   100.17     LegendNANA

Notes on Data Quality.

Legend

  • E = Estimated
  • M = Missing
  • NA = Not Available*
  • [empty] = Indicates an unobserved value
Date modified: